Regional Weather Roundup
Issued by NWS

Home | Current Version | Previous Version | Graphics & Text | Print | Product List | Glossary On
Versions: 1 2 3 4 5 6 7 8 9 10 11 12 13 14 15 16 17 18 19 20 21 22 23 24 25 26 27 28 29 30 31 32 33 34 35 36 37 38 39 40 41 42 43 44 45 46 47 48 49 50
000
ASUS43 KDMX 201501
RWRIA

WEATHER ROUNDUP FOR IOWA
NATIONAL WEATHER SERVICE DES MOINES IA
1000 AM CDT WED SEP 20 2017

NOTE: "FAIR" INDICATES FEW OR NO CLOUDS BELOW 12,000 FEET WITH NO
SIGNIFICANT WEATHER AND/OR OBSTRUCTIONS TO VISIBILITY.

* - THESE STATIONS ARE NOT NWS STATIONS...THUS NOT UNDER NWS
QUALITY CONTROL.  THEY ALSO DO NOT REPORT WEATHER SUCH
AS PRECIPITATION OR FOG.

IAZ001>003-012>014-020>022-031>034-043>046-201600-
   NORTHWEST IOWA

CITY           SKY/WX    TMP DP  RH WIND       PRES   REMARKS
CARROLL *      SUNNY     72  57  60 NW12      29.77R
CHEROKEE *     SUNNY     64  57  76 NW8       29.81R
DENISON *      SUNNY     68  55  64 NW13      29.81R
LE MARS *      SUNNY     63  54  72 NW12      29.82R
ORANGE CITY *  SUNNY     63  55  77 NW14      29.82R
SHELDON *      SUNNY     61  54  77 NW13      29.80R
SIOUX CITY     SUNNY     63  55  75 NW15      29.83R
SPENCER        SUNNY     64  56  75 NW17      29.79R
STORM LAKE *   SUNNY     64  54  68 NW14      29.80R
$$

IAZ055>058-069>071-079>083-090>094-201600-
   SOUTHWEST IOWA

CITY           SKY/WX    TMP DP  RH WIND       PRES   REMARKS
ATLANTIC *     PTSUNNY   77  72  83 SW8       29.76R
AUDUBON *      PTSUNNY   73  66  78 NW8       29.78R
CLARINDA *     MOSUNNY   81  72  74 S13       29.77R HX  84
COUNCIL BLFS * SUNNY     70  57  64 N14       29.78R
CRESTON *      SUNNY     79 -33   1 SW15      29.78R
HARLAN  *      SUNNY     72  57  60 N12       29.81R
LAMONI         SUNNY     79  71  76 S17       29.79R HX  82
RED OAK *      MOSUNNY   79  72  78 SW7       29.76R HX  82
SHENANDOAH *   PTSUNNY   81  70  69 SW8G15    29.76R HX  84
$$

IAZ047>049-059>061-072>074-084-201600-
   CENTRAL IOWA

CITY           SKY/WX    TMP DP  RH WIND       PRES   REMARKS
AMES           MOSUNNY   77  71  82 SW13      29.75R
ANKENY *       SUNNY     79  70  73 SW7G16    29.76R HX  81
BOONE *        MOSUNNY   77  70  78 SW10      29.74S
CHARITON *     SUNNY     79  70  73 SW20      29.78R HX  81
DES MOINES     MOSUNNY   81  70  69 S12       29.74S HX  84
GRINNELL*      SUNNY     77  69  74 S10       29.79R
KNOXVILLE *    SUNNY     79  68  69 SW14G23   29.77R HX  81
MARSHALLTOWN   SUNNY     78  70  76 S15       29.75S HX  80
NEWTON *       MOSUNNY   79  70  73 SW12      29.77S HX  81
PELLA *        SUNNY     81  68  65 S8G18     29.79R HX  83
PERRY *        PTSUNNY   79  72  78 SW7       29.75R HX  82
$$

IAZ004>006-015-016-023>025-035-036-201600-
   NORTH CENTRAL IOWA

CITY           SKY/WX    TMP DP  RH WIND       PRES   REMARKS
ALGONA *       SUNNY     68  57  68 NW9       29.76R
CLARION *      MOSUNNY   77  72  83 SW10      29.74R
ESTHERVILLE    SUNNY     64  57  78 NW9       29.77R
FORT DODGE *   SUNNY     71  60  68 NW7       29.77R
MASON CITY     MOSUNNY   77  69  76 SW14      29.75R
FOREST CITY *  PTSUNNY   73  68  83 W7        29.74R
IOWA FALLS *     N/A     78  70  76 S14       29.76S
$$

IAZ007>011-017>019-026>030-037>042-050>054-066-201600-
   NORTHEAST IOWA

CITY           SKY/WX    TMP DP  RH WIND       PRES   REMARKS
CEDAR RAPIDS   SUNNY     78  69  73 S12       29.80R HX  80
CHARLES CITY * PTSUNNY   75  70  83 S12G18    29.75R
CLINTON *      SUNNY     78  69  73 S14       29.84F HX  80
DECORAH *      CLOUDY    75  68  78 S10G17    29.75F
DUBUQUE        SUNNY     75  67  76 S17G24    29.82F
MONTICELLO *   SUNNY     79  68  69 S10G18    29.81S HX  81
OELWEIN *      MOSUNNY   77  70  78 S13G18    29.78F
WATERLOO       SUNNY     77  67  71 S13       29.74F
$$

IAZ064-065-067-068-078-201600-
   EAST CENTRAL IOWA

CITY           SKY/WX    TMP DP  RH WIND       PRES   REMARKS
DAVENPORT      SUNNY     80  68  66 S15G21    29.84F HX  83
IOWA CITY      SUNNY     81  69  67 S15       29.82R HX  84
MUSCATINE *    SUNNY     82  68  61 S15       29.82S HX  85
QUAD CITIES    SUNNY     82  68  62 S12G18    29.82F HX  85
$$

IAZ062-063-075>077-085>089-095>099-201600-
   SOUTHEAST IOWA

CITY           SKY/WX    TMP DP  RH WIND       PRES   REMARKS
BURLINGTON     SUNNY     81  71  71 S14       29.84S HX  85
FAIRFIELD *    SUNNY     81  68  65 S20G26    29.81R HX  83
FORT MADISON * SUNNY     81  72  74 S14G20    29.85S HX  84
KEOKUK *       SUNNY     81  72  74 SW10G20   29.85R HX  84
OSKALOOSA *      N/A     79  69  71 SW14G20   29.80R HX  81
OTTUMWA        SUNNY     81  69  67 S13G24    29.80R HX  84
WASHINGTON *   SUNNY     81  72  74 S9G18     29.83R HX  84
$$

ABBREVIATIONS USED IN REMARKS
   TC - TEMPERATURES IN CELSIUS
  WCI - WIND CHILL INDEX
   HX - HEAT INDEX
  VSB - VISIBILITY
$$





USA.gov is the U.S. government's official web portal to all federal, state and local government web resources and services.